Regional Weather Roundup
Issued by NWS Wilmington, NC

Home | Current Version | Previous Version | Text Only | Print | Product List | Glossary On
Versions: 1 2 3 4 5 6 7 8 9 10 11 12 13 14 15 16 17 18 19 20 21 22 23 24 25 26 27 28 29 30 31 32 33 34 35 36 37 38 39 40 41 42 43 44 45 46 47 48 49 50
000
ASUS42 KILM 261213
RWRILM
RWRILM
REGIONAL HOURLY WEATHER ROUNDUP
NATIONAL WEATHER SERVICE WILMINGTON NC
800 AM EDT TUE JUL 26 2016

NOTE: "FAIR" INDICATES FEW OR NO CLOUDS BELOW 12,000 FEET WITH NO
SIGNIFICANT WEATHER AND/OR OBSTRUCTIONS TO VISIBILITY.

...............WFO WILMINGTON COUNTY WARNING AREA...............

......COASTAL NC AND SC COUNTIES......

CITY           SKY/WX    TMP DP  RH WIND       PRES   REMARKS
WILMINGTON     SUNNY     80  73  79 W12       30.06R
N MYRTLE BEACH SUNNY     81  73  76 SW9       30.05S
MYRTLE BEACH   SUNNY     79  66  65 SW8       30.07S

......INLAND NC AND SC COUNTIES.......

CITY           SKY/WX    TMP DP  RH WIND       PRES   REMARKS
LUMBERTON      SUNNY     77  73  87 SW7       30.03S
ELIZABETHTOWN  PTSUNNY   78  75  90 SW7       30.04F
WHITEVILLE     SUNNY     76  73  90 SW5       30.05S
FLORENCE       SUNNY     78  73  84 SW6       30.05R
DARLINGTON     SUNNY     77  74  90 SW9       30.04S
KINGSTREE      FAIR      77  72  83 S3        30.05S
HARTSVILLE     FAIR      75  72  88 SW3       30.04R
BENNETTSVILLE  FAIR      79  73  83 S3        30.03S
CONWAY         FAIR      77  72  83 S5        30.05F
GEORGETOWN     FAIR      77  73  88 SW3       30.07S
MARION           N/A     73  72  94 S5        30.05S

....................REST OF NORTH CAROLINA......................

.........EASTERN NC.........

CITY           SKY/WX    TMP DP  RH WIND       PRES   REMARKS
CAPE HATTERAS  MOSUNNY   80  75  84 W10G17    30.02R
JACKSONVILLE   MOSUNNY   79  75  87 SW8       30.05R
MOREHEAD CITY  CLOUDY    81  75  82 W13       30.04R
KENANSVILLE    NOT AVBL
NEW BERN       CLOUDY    79  73  82 SW10      30.04R
ELIZABETH CITY SUNNY     81  73  76 SW14      29.97F

.........CENTRAL NC.........

CITY           SKY/WX    TMP DP  RH WIND       PRES   REMARKS
RALEIGH DURHAM MOSUNNY   79  72  79 SW9       30.02R
ROCKY MOUNT    SUNNY     80  74  81 MISG      30.01R
ROANOKE RAPIDS NOT AVBL
FAYETTEVILLE   MOSUNNY   79  73  82 SW9       30.03R
HOFFMAN        SUNNY     78  72  82 SW8       30.03S

.........WESTERN NC.........

CITY           SKY/WX    TMP DP  RH WIND       PRES   REMARKS
CHARLOTTE      MOSUNNY   79  69  71 SW8       30.05R
GREENSBORO     PTSUNNY   79  71  76 SW8       30.03S
HICKORY        NOT AVBL
BOONE          NOT AVBL
ASHEVILLE      NOT AVBL

.....................REST OF SOUTH CAROLINA.....................

.........EASTERN SC.........

CITY           SKY/WX    TMP DP  RH WIND       PRES   REMARKS
CHARLESTON     MOSUNNY   81  75  82 SW7       30.05F
BEAUFORT MCAS  SUNNY     80  73  79 SW7       30.06S
HILTON HEAD    SUNNY     81  73  78 SW6       30.07S

.........CENTRAL SC.........

CITY           SKY/WX    TMP DP  RH WIND       PRES   REMARKS
COLUMBIA       SUNNY     79  71  76 CALM      30.03S
ORANGEBURG     SUNNY     76  73  91 S5        30.05S
SUMTER SHAW    SUNNY     77  72  84 S8        30.02S

.........WESTERN SC.........

CITY           SKY/WX    TMP DP  RH WIND       PRES   REMARKS
GREENVILLE     NOT AVBL
ROCK HILL      SUNNY     78  70  76 SW8       30.06R
ANDERSON       SUNNY     77  73  87 CALM      30.05S
CLEMSON        NOT AVBL
GREENWOOD      SUNNY     78  69  73 SW7       30.07R


...................COASTAL AND OFFSHORE REPORTS..................

................LOCAL PIERS AND NC RESERVE................


STATION/POSITION TIME  SKY/WX   TEMP    WIND        PRES    VSBY
                                AIR SEA DIR/SP/G
                 (UTC)          (F)     (DEG/KT/KT) (MB)    (MI)
JOHNY MRCER PIER 1100            79 80  230/  6/  8 1016.5R
NC RESRV MASNBRO NOT AVBL
OCEAN CREST PIER NOT AVBL
SPRINGMAID  PIER 1100            78 84              1017.3R


................COASTAL AND OFFSHORE BUOYS................


STATION/POSITION TIME  SKY/WX   TEMP    WIND        PRES    VSBY
                                AIR SEA DIR/SP/G
                 (UTC)          (F)     (DEG/KT/KT) (MB)    (MI)
DIMNDSHOAL 41025 1150            83 84  250/ 17/ 19 1016.5R
WVE H/P(F/S)=  4/ 6

CAPE LOOKOUT     1200            83     250/ 14/ 19 1017.0R
ONSLOW BAY 41036 NOT AVBL
ONSLOW BAY 41064 1108            83 85  250/ 16/ 21 1017.3R
ONSLOW BAY 41159 1125               84                N/A
WVE H/P(F/S)=  4/ 5

5SE WRITBC 41038 1108            80 81  250/  8/ 12 1018.4R
MASNBO INL 41110 1106               81                N/A
WVE H/P(F/S)=  2/ 5

WILM HARBR 41108 1126               85                N/A
WVE H/P(F/S)=  4/ 5

27SE WRITB 41037 1108            83 84  240/ 14/ 17 1017.6R
FRYING PAN 41013 1200            84 85  250/ 14/ 16 1017.6R
SUNST NRSH 41024 1108            82 83  250/ 16/ 21 1017.5R
CAPRS NRSH 41029 1108            83 82  230/ 12/ 14 1017.6R
EDISTO     41004 1150            85 85  250/ 12/ 14 1017.6R
WVE H/P(F/S)=  2/ 4 SWL H/P/D(F/S/D)=  2/150/ 8



..........OFFSHORE BUOYS BEYOND 100 NM OFFSHORE...........
.....IN A TRIANGLE---HAT TO BERMUDA TO BAHAMAS TO HAT.....


STATION/POSITION TIME  SKY/WX   TEMP    WIND        PRES    VSBY
                                AIR SEA DIR/SP/G
                 (UTC)          (F)     (DEG/KT/KT) (MB)    (MI)
150E HAT   41001 NOT AVBL
W BERMUDA  41048 1150            83 84  270/ 10/ 12 1019.5R
WVE H/P(F/S)=  2/ 7 SWL H/P/D(F/S/D)=  2/130/ 7

ATLANTIC S 41049 1150            83 85  270/  2/  4 1020.8R
WVE H/P(F/S)=  3/ 7 SWL H/P/D(F/S/D)=  3/100/ 7

E BAHAMAS  41046 1200            83 85   80/ 14/ 16 1019.1R
NE BAHAMAS 41047 1200            84 85  100/  4/  6 1020.3R
120E CANVRL41010 1120            85 86  190/  6/  8 1019.3R

END



USA.gov is the U.S. government's official web portal to all federal, state and local government web resources and services.